Time,TemperatureF,DewpointF,PressureIn,WindDirection,WindDirectionDegrees,WindSpeedMPH,WindSpeedGustMPH,Humidity,HourlyPrecipIn,Conditions,Clouds,dailyrainin,SoftwareType,DateUTC
2013-07-09 00:02:00,69.0,68.0,-100.00,South,184,0.0,3.0,95,0.03,,,0.03,,2013-07-09 04:02:00,
2013-07-09 00:34:00,69.0,68.0,-100.00,South,184,0.0,3.0,95,0.03,,,0.03,,2013-07-09 04:34:00,
2013-07-09 00:43:00,69.0,68.0,-100.00,South,184,0.0,3.0,95,0.03,,,0.03,,2013-07-09 04:43:00,
2013-07-09 00:53:00,69.0,68.0,-100.00,South,184,0.0,3.0,95,0.03,,,0.03,,2013-07-09 04:53:00,
2013-07-09 01:34:00,68.0,67.0,-100.00,ESE,109,0.0,3.0,96,0.00,,,0.03,,2013-07-09 05:34:00,
2013-07-09 01:42:00,68.0,67.0,-100.00,ESE,109,0.0,3.0,96,0.00,,,0.03,,2013-07-09 05:42:00,
2013-07-09 01:52:00,68.0,67.0,-100.00,ESE,109,0.0,3.0,96,0.00,,,0.03,,2013-07-09 05:52:00,
2013-07-09 02:01:00,68.0,67.0,-100.00,ESE,109,0.0,3.0,96,0.00,,,0.03,,2013-07-09 06:01:00,
2013-07-09 02:02:00,68.0,67.0,-100.00,North,10,0.0,2.0,96,0.00,,,0.03,,2013-07-09 06:02:00,
2013-07-09 02:34:00,68.0,67.0,-100.00,North,10,0.0,2.0,96,0.00,,,0.03,,2013-07-09 06:34:00,
2013-07-09 02:43:00,68.0,67.0,-100.00,North,10,0.0,2.0,96,0.00,,,0.03,,2013-07-09 06:43:00,
2013-07-09 02:53:00,68.0,67.0,-100.00,North,10,0.0,2.0,96,0.00,,,0.03,,2013-07-09 06:53:00,
2013-07-09 03:22:00,68.0,67.0,-100.00,NNE,28,0.0,0.0,97,0.00,,,0.03,,2013-07-09 07:22:00,
2013-07-09 03:34:00,68.0,67.0,-100.00,NNE,28,0.0,0.0,97,0.00,,,0.03,,2013-07-09 07:34:00,
2013-07-09 03:43:00,68.0,67.0,-100.00,NNE,28,0.0,0.0,97,0.00,,,0.03,,2013-07-09 07:43:00,
2013-07-09 03:53:00,68.0,67.0,-100.00,NNE,28,0.0,0.0,97,0.00,,,0.03,,2013-07-09 07:53:00,
2013-07-09 04:01:00,68.0,67.0,-100.00,NNE,28,0.0,0.0,97,0.00,,,0.03,,2013-07-09 08:01:00,
2013-07-09 04:02:00,68.0,67.0,-100.00,NNE,22,0.0,3.0,97,0.00,,,0.03,,2013-07-09 08:02:00,
2013-07-09 04:33:00,68.0,67.0,-100.00,NNE,22,0.0,3.0,97,0.00,,,0.03,,2013-07-09 08:33:00,
2013-07-09 04:43:00,68.0,67.0,-100.00,NNE,22,0.0,3.0,97,0.00,,,0.03,,2013-07-09 08:43:00,
2013-07-09 04:52:00,68.0,67.0,-100.00,NNE,22,0.0,3.0,97,0.00,,,0.03,,2013-07-09 08:52:00,
2013-07-09 05:34:00,68.0,67.0,-100.00,NNE,33,0.0,0.0,97,0.00,,,0.03,,2013-07-09 09:34:00,
2013-07-09 05:42:00,68.0,67.0,-100.00,NNE,33,0.0,0.0,97,0.00,,,0.03,,2013-07-09 09:42:00,
2013-07-09 05:53:00,68.0,67.0,-100.00,NNE,33,0.0,0.0,97,0.00,,,0.03,,2013-07-09 09:53:00,
2013-07-09 06:01:00,68.0,67.0,-100.00,NNE,33,0.0,0.0,97,0.00,,,0.03,,2013-07-09 10:01:00,
2013-07-09 06:02:00,67.0,66.0,-100.00,East,90,0.0,2.0,97,0.00,,,0.03,,2013-07-09 10:02:00,
2013-07-09 06:34:00,67.0,66.0,-100.00,East,90,0.0,2.0,97,0.00,,,0.03,,2013-07-09 10:34:00,
2013-07-09 06:42:00,67.0,66.0,-100.00,East,90,0.0,2.0,97,0.00,,,0.03,,2013-07-09 10:42:00,
2013-07-09 06:52:00,67.0,66.0,-100.00,East,90,0.0,2.0,97,0.00,,,0.03,,2013-07-09 10:52:00,
2013-07-09 07:02:00,68.0,67.0,-100.00,South,191,0.0,1.0,97,0.00,,,0.03,,2013-07-09 11:02:00,
2013-07-09 07:34:00,68.0,67.0,-100.00,South,191,0.0,1.0,97,0.00,,,0.03,,2013-07-09 11:34:00,
2013-07-09 07:42:00,68.0,67.0,-100.00,South,191,0.0,1.0,97,0.00,,,0.03,,2013-07-09 11:42:00,
2013-07-09 07:53:00,68.0,67.0,-100.00,South,191,0.0,1.0,97,0.00,,,0.03,,2013-07-09 11:53:00,
2013-07-09 08:33:00,68.0,67.0,-100.00,SSE,166,0.0,2.0,97,0.00,,,0.03,,2013-07-09 12:33:00,
2013-07-09 08:43:00,68.0,67.0,-100.00,SSE,166,0.0,2.0,97,0.00,,,0.03,,2013-07-09 12:43:00,
2013-07-09 08:53:00,68.0,67.0,-100.00,SSE,166,0.0,2.0,97,0.00,,,0.03,,2013-07-09 12:53:00,
2013-07-09 09:01:00,68.0,67.0,-100.00,SSE,166,0.0,2.0,97,0.00,,,0.03,,2013-07-09 13:01:00,
2013-07-09 09:02:00,68.0,67.0,-100.00,South,175,1.0,4.0,96,0.00,,,0.03,,2013-07-09 13:02:00,
2013-07-09 09:33:00,68.0,67.0,-100.00,South,175,1.0,4.0,96,0.00,,,0.03,,2013-07-09 13:33:00,
2013-07-09 09:43:00,68.0,67.0,-100.00,South,175,1.0,4.0,96,0.00,,,0.03,,2013-07-09 13:43:00,
2013-07-09 09:53:00,68.0,67.0,-100.00,South,175,1.0,4.0,96,0.00,,,0.03,,2013-07-09 13:53:00,
2013-07-09 10:02:00,68.0,67.0,-100.00,SSE,164,1.0,4.0,96,0.00,,,0.03,,2013-07-09 14:02:00,
2013-07-09 10:34:00,68.0,67.0,-100.00,SSE,164,1.0,4.0,96,0.00,,,0.03,,2013-07-09 14:34:00,
2013-07-09 10:43:00,68.0,67.0,-100.00,SSE,164,1.0,4.0,96,0.00,,,0.03,,2013-07-09 14:43:00,
2013-07-09 10:53:00,68.0,67.0,-100.00,SSE,164,1.0,4.0,96,0.00,,,0.03,,2013-07-09 14:53:00,
2013-07-09 11:02:00,72.0,68.0,-100.00,South,189,4.0,6.0,87,0.00,,,0.03,,2013-07-09 15:02:00,
2013-07-09 11:34:00,72.0,68.0,-100.00,South,189,4.0,6.0,87,0.00,,,0.03,,2013-07-09 15:34:00,
2013-07-09 11:43:00,72.0,68.0,-100.00,South,189,4.0,6.0,87,0.00,,,0.03,,2013-07-09 15:43:00,
2013-07-09 11:52:00,72.0,68.0,-100.00,South,189,4.0,6.0,87,0.00,,,0.03,,2013-07-09 15:52:00,
2013-07-09 12:02:00,75.0,68.0,-100.00,South,179,4.0,7.0,79,0.00,,,0.03,,2013-07-09 16:02:00,
2013-07-09 12:34:00,75.0,68.0,-100.00,South,179,4.0,7.0,79,0.00,,,0.03,,2013-07-09 16:34:00,
2013-07-09 12:43:00,75.0,68.0,-100.00,South,179,4.0,7.0,79,0.00,,,0.03,,2013-07-09 16:43:00,
2013-07-09 12:53:00,75.0,68.0,-100.00,South,179,4.0,7.0,79,0.00,,,0.03,,2013-07-09 16:53:00,
2013-07-09 13:02:00,77.0,69.0,-100.00,South,186,4.0,8.0,76,0.01,,,0.04,,2013-07-09 17:02:00,
2013-07-09 13:35:00,77.0,69.0,-100.00,South,186,4.0,8.0,76,0.01,,,0.04,,2013-07-09 17:35:00,
2013-07-09 13:45:00,77.0,69.0,-100.00,South,186,4.0,8.0,76,0.01,,,0.04,,2013-07-09 17:45:00,
2013-07-09 13:53:00,77.0,69.0,-100.00,South,186,4.0,8.0,76,0.01,,,0.04,,2013-07-09 17:53:00,
2013-07-09 14:32:00,79.0,71.0,-100.00,SSE,168,3.0,8.0,76,0.00,,,-99.99,,2013-07-09 18:32:00,
2013-07-09 14:43:00,79.0,71.0,-100.00,SSE,168,3.0,8.0,76,0.00,,,-99.99,,2013-07-09 18:43:00,
2013-07-09 14:52:00,79.0,71.0,-100.00,SSE,168,3.0,8.0,76,0.00,,,-99.99,,2013-07-09 18:52:00,
2013-07-09 15:01:00,79.0,71.0,-100.00,SSE,168,3.0,8.0,76,0.00,,,-99.99,,2013-07-09 19:01:00,
2013-07-09 15:02:00,78.0,67.0,-100.00,South,186,6.0,11.0,69,0.00,,,0.04,,2013-07-09 19:02:00,
2013-07-09 15:33:00,78.0,67.0,-100.00,South,186,6.0,11.0,69,0.00,,,0.04,,2013-07-09 19:33:00,
2013-07-09 15:42:00,78.0,67.0,-100.00,South,186,6.0,11.0,69,0.00,,,0.04,,2013-07-09 19:42:00,
2013-07-09 15:52:00,78.0,67.0,-100.00,South,186,6.0,11.0,69,0.00,,,0.04,,2013-07-09 19:52:00,
2013-07-09 16:32:00,73.0,66.0,-100.00,South,189,3.0,9.0,80,0.00,,,0.04,,2013-07-09 20:32:00,
2013-07-09 16:43:00,73.0,66.0,-100.00,South,189,3.0,9.0,80,0.00,,,0.04,,2013-07-09 20:43:00,
2013-07-09 16:52:00,73.0,66.0,-100.00,South,189,3.0,9.0,80,0.00,,,0.04,,2013-07-09 20:52:00,
2013-07-09 17:01:00,73.0,66.0,-100.00,South,189,3.0,9.0,80,0.00,,,0.04,,2013-07-09 21:01:00,
2013-07-09 17:32:00,75.0,68.0,-100.00,South,187,3.0,8.0,80,0.00,,,0.04,,2013-07-09 21:32:00,
2013-07-09 17:43:00,75.0,68.0,-100.00,South,187,3.0,8.0,80,0.00,,,0.04,,2013-07-09 21:43:00,
2013-07-09 17:52:00,75.0,68.0,-100.00,South,187,3.0,8.0,80,0.00,,,0.04,,2013-07-09 21:52:00,
2013-07-09 18:01:00,75.0,68.0,-100.00,South,187,3.0,8.0,80,0.00,,,0.04,,2013-07-09 22:01:00,
2013-07-09 18:02:00,75.0,68.0,-100.00,South,191,3.0,9.0,78,0.00,,,0.04,,2013-07-09 22:02:00,
2013-07-09 18:33:00,75.0,68.0,-100.00,South,191,3.0,9.0,78,0.00,,,0.04,,2013-07-09 22:33:00,
2013-07-09 18:42:00,75.0,68.0,-100.00,South,191,3.0,9.0,78,0.00,,,0.04,,2013-07-09 22:42:00,
2013-07-09 18:53:00,75.0,68.0,-100.00,South,191,3.0,9.0,78,0.00,,,0.04,,2013-07-09 22:53:00,
2013-07-09 19:22:00,72.0,66.0,-100.00,South,190,3.0,7.0,82,0.00,,,0.04,,2013-07-09 23:22:00,
2013-07-09 19:33:00,72.0,66.0,-100.00,South,190,3.0,7.0,82,0.00,,,0.04,,2013-07-09 23:33:00,
2013-07-09 19:43:00,72.0,66.0,-100.00,South,190,3.0,7.0,82,0.00,,,0.04,,2013-07-09 23:43:00,
2013-07-09 19:53:00,72.0,66.0,-100.00,South,190,3.0,7.0,82,0.00,,,0.04,,2013-07-09 23:53:00,
2013-07-09 20:01:00,72.0,66.0,-100.00,South,190,3.0,7.0,82,0.00,,,0.04,,2013-07-10 00:01:00,
2013-07-09 20:22:00,70.0,67.0,-100.00,South,188,1.0,6.0,89,0.00,,,0.04,,2013-07-10 00:22:00,
2013-07-09 20:33:00,70.0,67.0,-100.00,South,188,1.0,6.0,89,0.00,,,0.04,,2013-07-10 00:33:00,
2013-07-09 20:43:00,70.0,67.0,-100.00,South,188,1.0,6.0,89,0.00,,,0.04,,2013-07-10 00:43:00,
2013-07-09 20:52:00,70.0,67.0,-100.00,South,188,1.0,6.0,89,0.00,,,0.04,,2013-07-10 00:52:00,
2013-07-09 21:01:00,70.0,67.0,-100.00,South,188,1.0,6.0,89,0.00,,,0.04,,2013-07-10 01:01:00,
2013-07-09 21:02:00,68.0,67.0,-100.00,SW,229,0.0,1.0,95,0.00,,,0.04,,2013-07-10 01:02:00,
2013-07-09 21:33:00,68.0,67.0,-100.00,SW,229,0.0,1.0,95,0.00,,,0.04,,2013-07-10 01:33:00,
2013-07-09 21:43:00,68.0,67.0,-100.00,SW,229,0.0,1.0,95,0.00,,,0.04,,2013-07-10 01:43:00,
2013-07-09 21:53:00,68.0,67.0,-100.00,SW,229,0.0,1.0,95,0.00,,,0.04,,2013-07-10 01:53:00,
2013-07-09 22:34:00,68.0,67.0,-100.00,SSE,153,0.0,0.0,96,0.00,,,0.04,,2013-07-10 02:34:00,
2013-07-09 22:43:00,68.0,67.0,-100.00,SSE,153,0.0,0.0,96,0.00,,,0.04,,2013-07-10 02:43:00,
2013-07-09 22:53:00,68.0,67.0,-100.00,SSE,153,0.0,0.0,96,0.00,,,0.04,,2013-07-10 02:53:00,
2013-07-09 23:01:00,68.0,67.0,-100.00,SSE,153,0.0,0.0,96,0.00,,,0.04,,2013-07-10 03:01:00,
2013-07-09 23:32:00,69.0,68.0,-100.00,South,169,2.0,6.0,95,0.00,,,0.04,,2013-07-10 03:32:00,
2013-07-09 23:43:00,69.0,68.0,-100.00,South,169,2.0,6.0,95,0.00,,,0.04,,2013-07-10 03:43:00,
2013-07-09 23:52:00,69.0,68.0,-100.00,South,169,2.0,6.0,95,0.00,,,0.04,,2013-07-10 03:52:00,